Temperature
8 9 9 8 8 8 8 8 7 8 9 9 9 8 8 9 8 8 7 7 7 7 7 6 6 6 6 6 5 5 5 5 5 5 5 5 5 5 5 5 5 5 5 4
6 8 8 8 8 8 8 8 8 8 8 8 8 9 8 8 7 7 7 6 6 6 6 6 6 6 5 5 5 5 5 5 5 5 5 5 4 4 4 4 4 4 4 4
5 7 7 6 7 7 7 7 8 7 7 8 7 7 7 7 7 7 6 6 6 6 6 5 5 5 5 5 5 5 5 5 5 4 4 4 4 4 4 4 4 4 4 4
5 6 5 7 8 8 7 7 7 7 7 7 7 7 7 7 6 6 6 6 5 5 5 5 5 5 5 5 5 4 4 4 4 4 4 4 4 4 4 4 4 3 3 3
4 5 5 6 6 6 6 6 6 6 6 6 6 6 6 6 5 5 5 5 5 5 5 5 4 4 4 4 4 4 4 4 4 4 4 4 4 4 3 3 3 3 3 3
4 4 5 5 5 6 6 5 5 5 5 5 5 4 4 5 5 5 5 5 5 5 4 4 4 4 4 4 4 4 4 4 4 4 4 3 3 3 3 3 3 2 2 2
3 4 4 4 4 5 5 4 4 5 4 4 4 4 4 4 4 4 4 4 4 4 4 4 3 3 3 3 3 3 3 3 3 3 3 3 3 3 3 2 2 2 2 2
3 3 3 3 3 3 3 3 4 4 4 3 3 3 3 3 3 3 3 3 3 3 3 3 3 3 3 3 3 3 3 3 3 3 3 2 2 2 2 2 2 2 2 2
2 2 2 2 2 2 3 3 3 3 3 3 2 2 2 2 2 2 2 2 2 2 2 2 2 2 2 2 2 2 2 2 2 2 2 2 2 2 1 1 1 1 1 1
1 1 2 2 2 2 2 2 2 2 2 2 2 1 1 1 1 1 1 1 1 1 1 1 1 1 1 2 2 2 2 2 2 2 2 1 1 1 1 1 1 1 1 1
1 1 1 1 1 1 1 1 1 1 1 1 1 1 1 0 0 0 0 0 0 0 0 0 0 0 1 1 1 1 1 1 1 1 1 1 1 1 0 0 0 0 1 1
-0 1 1 1 1 1 1 0 0 0 0 0 0 -0 -0 -0 -0 -0 -0 -0 -0 -1 -0 -0 -0 -0 0 0 0 1 0 0 0 0 0 0 0 0 0 0 0 0 0 0
-0 0 -0 -0 -0 -0 -0 -0 -1 -1 -1 -1 -1 -1 -1 -1 -1 -1 -1 -1 -1 -1 -1 -1 -1 -1 -1 -1 -0 -0 -0 -0 -0 -0 -1 -0 -0 -0 -0 -0 -0 -0 -0 -0
-1 -1 -1 -1 -1 -1 -1 -1 -1 -1 -1 -1 -1 -1 -1 -1 -2 -2 -2 -2 -2 -2 -2 -2 -1 -1 -1 -1 -1 -1 -1 -1 -1 -1 -1 -1 -1 -1 -1 -1 -1 -0 -0 -0
-2 -2 -2 -2 -2 -2 -2 -2 -2 -2 -2 -2 -2 -2 -2 -2 -2 -2 -2 -2 -2 -2 -2 -2 -2 -2 -2 -2 -2 -2 -2 -2 -2 -2 -2 -2 -2 -2 -2 -2 -2 -1 -1 -1
-3 -3 -3 -3 -3 -3 -3 -3 -3 -3 -3 -3 -3 -3 -3 -2 -2 -2 -2 -2 -2 -2 -2 -2 -2 -2 -2 -2 -2 -2 -2 -2 -2 -2 -2 -2 -2 -2 -2 -2 -2 -2 -2 -2
-4 -4 -4 -4 -4 -4 -4 -4 -3 -3 -4 -4 -4 -3 -3 -3 -3 -3 -3 -3 -3 -3 -3 -3 -3 -3 -3 -3 -3 -3 -3 -3 -3 -3 -3 -3 -3 -3 -3 -3 -3 -3 -3 -3
-4 -5 -4 -5 -5 -5 -5 -4 -4 -4 -4 -4 -4 -4 -4 -4 -4 -3 -3 -3 -3 -3 -3 -3 -3 -3 -3 -3 -3 -3 -4 -4 -4 -4 -4 -4 -4 -4 -4 -4 -4 -4 -4 -4
-5 -5 -5 -5 -5 -5 -5 -5 -5 -5 -5 -5 -5 -5 -5 -4 -4 -4 -4 -4 -4 -4 -4 -4 -4 -4 -4 -4 -4 -4 -4 -4 -4 -4 -4 -4 -4 -4 -4 -4 -4 -4 -4 -4
-5 -5 -5 -5 -5 -6 -6 -6 -6 -6 -5 -5 -5 -5 -5 -5 -5 -5 -5 -5 -5 -5 -5 -5 -5 -5 -5 -5 -5 -5 -5 -5 -5 -5 -5 -5 -5 -5 -5 -5 -5 -5 -5 -5
-6 -6 -6 -6 -6 -6 -6 -6 -6 -6 -6 -6 -6 -6 -6 -6 -6 -6 -6 -6 -5 -6 -6 -5 -5 -5 -5 -5 -5 -6 -5 -5 -5 -5 -6 -6 -6 -6 -6 -6 -6 -6 -6 -6
-7 -7 -7 -7 -7 -7 -7 -7 -7 -7 -7 -7 -7 -7 -7 -6 -6 -6 -6 -6 -6 -6 -6 -6 -6 -6 -6 -6 -6 -6 -6 -6 -6 -6 -6 -6 -6 -6 -6 -6 -6 -6 -6 -6
-8 -8 -8 -8 -8 -8 -7 -7 -8 -8 -8 -8 -8 -8 -7 -7 -7 -7 -7 -7 -7 -7 -7 -7 -6 -6 -6 -6 -6 -7 -7 -7 -7 -7 -7 -7 -7 -7 -7 -7 -7 -7 -7 -7
-8 -8 -8 -8 -8 -8 -8 -8 -8 -8 -8 -8 -8 -8 -8 -8 -8 -8 -8 -8 -8 -7 -7 -7 -7 -7 -7 -7 -7 -7 -7 -7 -7 -7 -7 -7 -7 -7 -7 -7 -7 -7 -7 -7
-9 -9 -9 -9 -9 -9 -9 -9 -9 -9 -9 -9 -9 -9 -9 -9 -9 -8 -8 -8 -8 -8 -8 -7 -7 -7 -7 -7 -7 -7 -7 -7 -7 -7 -7 -7 -7 -7 -7 -7 -7 -7 -8 -8
-10 -10 -10 -10 -10 -10 -10 -10 -10 -10 -10 -10 -9 -9 -9 -9 -9 -9 -9 -9 -8 -8 -8 -8 -8 -8 -8 -8 -8 -8 -8 -8 -8 -8 -8 -8 -8 -8 -8 -8 -8 -8 -8 -8
-10 -10 -10 -10 -10 -10 -10 -10 -10 -10 -10 -10 -10 -10 -10 -9 -9 -9 -9 -9 -9 -9 -9 -9 -9 -8 -8 -8 -8 -8 -8 -8 -8 -8 -8 -8 -8 -8 -8 -8 -8 -8 -8 -8
Wind_Speed
12 11 7 8 9 11 12 12 9 9 8 6 3 3 2 2 2 2 2 1 1 2 2 3 4 4 4 5 5 5 5 5 6 5 5 5 5 5 5 5 5 4 4 4
10 10 9 12 11 11 13 13 14 12 11 6 4 3 3 3 2 2 2 2 2 2 2 3 4 4 4 4 5 5 5 5 5 5 5 5 5 5 5 5 4 4 4 4
7 6 6 11 10 11 8 7 7 11 9 5 4 3 2 2 2 2 2 2 2 2 2 2 3 4 5 4 4 4 4 5 5 5 5 5 5 5 5 5 4 4 4 4
5 4 10 5 1 4 6 5 4 4 4 3 3 1 2 3 3 3 3 3 2 2 1 1 2 3 4 4 4 4 4 5 5 5 5 5 5 5 5 4 4 4 4 4
4 6 7 4 1 1 3 3 1 3 4 4 3 1 3 5 4 3 3 3 2 1 1 1 2 3 3 3 4 4 5 5 5 5 5 5 5 5 4 4 4 4 4 4
5 6 5 1 3 3 2 2 3 2 3 4 4 1 3 6 6 5 5 4 3 2 2 1 1 2 2 3 3 4 4 5 5 5 5 5 5 4 3 3 3 3 3 3
8 7 3 3 4 3 3 2 3 2 2 2 1 1 3 5 5 4 4 4 3 3 2 1 1 2 2 1 2 2 3 4 4 4 4 4 3 3 3 3 3 3 2 2
5 6 4 4 3 2 1 3 4 4 3 3 3 3 4 4 4 5 5 5 4 4 3 3 2 2 2 1 0 1 2 3 3 4 4 3 4 3 3 3 3 3 2 2
2 2 2 2 2 2 3 3 4 3 3 4 3 4 5 4 4 4 4 5 4 4 3 3 3 2 2 1 1 1 2 2 2 3 3 4 4 4 3 3 3 3 3 3
2 2 2 2 3 4 5 4 4 4 4 4 4 4 5 5 4 4 4 4 4 4 4 4 3 3 1 1 1 2 2 1 2 2 2 3 3 3 4 4 4 3 3 3
4 3 2 2 3 4 5 5 5 5 5 4 3 4 4 4 4 3 4 3 3 3 3 3 4 3 2 1 2 2 2 1 1 2 2 2 2 2 3 3 5 5 4 4
3 3 3 4 4 4 4 4 4 4 4 4 3 3 4 3 3 3 3 3 3 3 3 3 3 3 3 2 1 2 1 1 1 1 1 1 1 0 2 4 4 5 5 5
5 5 3 4 5 4 3 4 4 4 3 3 3 3 3 3 3 3 3 3 2 3 3 3 3 3 3 2 1 1 1 1 1 1 1 1 1 1 1 2 3 4 5 6
6 5 4 4 4 4 3 3 3 3 3 3 3 3 3 3 3 3 3 2 2 3 3 3 3 3 3 2 1 0 0 1 1 1 2 1 2 2 2 2 2 2 3 4
7 6 4 4 4 4 4 4 4 4 4 4 4 4 3 3 3 3 3 3 3 3 3 3 3 3 3 2 1 1 0 1 1 1 1 2 2 2 2 3 3 2 2 2
6 6 5 5 5 5 5 5 4 4 4 4 4 4 3 3 3 3 3 3 3 3 3 3 3 3 3 2 1 1 1 2 1 1 1 2 2 2 2 2 3 3 3 3
6 6 6 7 7 7 6 6 5 5 5 4 4 4 4 3 3 3 3 3 3 3 3 3 3 3 2 2 1 1 1 2 2 2 2 2 2 3 3 3 3 3 3 4
4 4 5 5 6 6 7 6 6 5 5 5 5 4 4 4 4 4 4 4 4 5 4 4 3 3 3 2 2 1 2 2 2 2 2 2 2 2 2 3 3 4 3 3
6 6 6 6 6 5 6 6 6 6 5 5 5 5 4 4 4 4 4 4 4 5 5 3 4 4 4 4 3 2 2 2 2 2 2 3 3 2 3 3 3 4 3 3
6 6 6 6 6 6 6 6 6 5 5 5 5 5 5 5 4 4 4 4 4 4 4 4 3 3 3 3 4 2 2 3 3 3 2 2 3 3 3 3 4 4 3 3
7 7 7 7 7 6 6 6 5 6 6 6 5 5 5 5 5 4 4 5 4 4 4 4 3 3 3 4 4 2 3 3 3 3 3 3 3 3 4 3 4 4 4 3
7 7 7 7 7 7 6 6 6 6 6 6 6 5 6 6 5 5 4 4 4 6 4 2 3 4 5 6 3 3 3 3 3 3 3 3 4 4 4 4 3 4 3 3
6 6 7 7 7 7 7 6 6 6 6 6 6 6 6 5 5 4 5 4 4 7 5 3 6 8 9 5 3 3 3 3 4 4 4 3 4 4 4 4 4 3 3 3
6 6 7 7 6 6 6 7 6 6 6 6 6 6 5 5 4 4 4 7 9 9 5 6 9 9 8 4 3 3 3 4 4 4 4 3 3 3 4 4 4 4 4 4
6 6 6 6 6 5 6 7 6 6 6 5 6 5 4 3 4 5 5 5 8 9 5 7 9 9 6 3 3 4 4 4 4 4 3 3 3 3 4 4 4 4 4 4
6 5 5 5 5 5 5 5 6 6 6 6 6 5 5 4 4 4 4 5 6 8 6 5 5 6 4 4 4 4 4 5 5 4 4 4 4 4 4 4 4 4 4 4
6 5 5 5 5 5 6 6 6 6 6 6 7 7 6 6 5 5 5 5 5 5 5 5 4 4 4 4 4 4 4 4 4 4 4 3 3 3 4 4 4 4 4 3
Wind_Direction
261 273 270 252 241 224 221 224 234 251 259 275 300 320 345 348 359 18 13 341 267 220 189 179 180 181 178 175 169 170 173 179 181 175 170 166 169 168 167 168 172 175 178 183
264 262 262 260 254 241 236 237 243 254 268 283 296 329 356 355 352 345 326 315 299 273 213 194 188 182 173 173 172 170 177 184 176 171 170 169 171 173 170 169 171 173 181 185
257 254 269 257 240 230 229 231 232 245 256 283 294 311 319 328 336 334 332 323 296 277 235 199 185 180 176 174 170 169 177 177 173 173 172 170 169 168 172 171 171 181 186 188
257 253 238 246 121 191 213 234 241 252 273 295 303 306 17 18 357 344 335 327 304 293 278 177 155 167 167 166 169 172 176 173 167 167 171 169 169 174 177 175 179 189 197 201
225 239 258 245 277 226 208 231 325 293 301 314 322 355 7 11 7 355 342 331 320 305 279 153 157 165 160 166 170 173 178 175 172 171 170 170 176 182 180 178 188 192 191 199
224 232 240 285 326 310 171 239 358 350 332 357 37 23 322 355 1 2 359 355 355 6 39 80 144 133 142 162 170 185 188 180 175 174 177 181 183 182 180 178 187 189 197 199
232 239 253 345 343 52 158 268 350 16 14 30 33 313 330 350 359 8 5 1 13 23 24 24 75 102 121 141 181 191 177 171 169 171 173 177 177 176 175 178 179 188 201 212
226 233 250 7 51 90 333 13 29 35 35 28 12 5 1 2 4 9 10 13 25 32 23 19 44 92 107 144 192 146 150 156 160 165 169 166 162 173 174 175 179 193 200 223
222 228 355 25 64 28 11 17 18 23 25 26 10 356 356 0 3 7 17 19 23 37 27 16 21 62 99 64 62 112 129 148 157 160 161 164 167 174 178 184 187 196 199 214
285 292 334 19 19 13 14 17 13 15 16 16 8 357 352 354 2 10 17 18 18 27 23 12 10 25 43 56 72 115 134 147 155 155 157 163 173 181 187 196 200 205 208 215
277 295 332 9 9 9 8 3 5 4 3 360 358 352 346 348 356 10 12 13 21 25 20 6 6 12 18 41 85 114 129 150 158 160 165 171 183 200 203 213 206 207 210 206
291 328 312 320 349 3 359 354 360 1 354 353 1 355 353 355 2 14 15 16 16 15 7 358 2 7 13 21 68 116 125 140 159 167 173 176 175 279 269 243 246 241 235 231
302 321 329 333 352 0 356 355 356 352 345 345 351 -0 360 355 2 10 16 13 5 357 356 355 356 355 359 16 46 124 166 203 190 189 201 210 202 204 267 309 282 257 249 251
338 342 333 336 343 349 346 345 350 354 355 1 2 9 9 360 3 7 1 359 5 6 360 358 353 342 346 13 39 56 196 231 221 213 210 213 221 226 227 238 273 288 270 256
1 359 339 343 348 347 349 358 3 0 1 5 6 4 358 352 348 343 346 356 4 359 349 350 345 335 346 3 9 333 289 251 227 219 216 218 222 227 229 238 245 258 273 273
355 1 4 360 353 353 355 359 1 351 352 355 354 352 349 347 343 337 342 350 348 333 330 334 326 327 344 349 340 320 294 274 260 240 232 228 228 230 232 232 238 243 247 249
358 356 356 351 352 353 354 354 353 347 344 339 336 342 344 341 339 337 338 345 340 325 321 319 315 326 338 333 317 296 282 278 276 260 242 237 235 234 234 235 240 247 249 250
352 348 345 341 343 343 345 350 351 346 339 335 339 342 337 331 323 323 326 331 334 328 319 311 322 332 325 315 309 302 294 283 272 260 258 255 256 246 242 244 247 251 257 260
2 357 351 349 347 345 345 345 344 342 340 342 339 330 320 315 316 318 322 325 320 313 314 327 339 339 322 316 319 310 298 288 282 276 269 273 279 264 253 252 253 252 252 254
352 349 349 348 351 351 345 341 340 340 339 338 332 325 321 320 321 319 315 304 291 288 303 323 332 322 314 309 314 298 292 285 279 279 276 269 269 271 265 260 258 257 255 255
344 345 347 347 344 343 340 337 338 335 335 335 328 321 317 319 319 313 309 304 306 317 323 328 330 316 308 307 312 301 286 280 275 273 272 269 268 269 268 266 265 263 260 260
340 340 338 339 339 337 335 335 333 331 332 333 331 328 324 320 317 310 294 286 302 321 329 317 311 310 311 312 305 295 288 285 280 273 268 267 267 269 268 266 267 269 265 261
335 334 334 334 331 325 326 331 335 336 332 329 326 323 319 314 313 310 309 315 321 321 324 308 310 313 315 316 304 297 291 288 285 278 271 267 267 269 271 270 268 268 270 270
331 330 327 324 325 328 330 332 334 331 324 320 319 317 317 317 315 308 302 314 320 318 316 311 316 317 320 315 303 298 295 291 287 283 280 276 272 270 270 270 269 265 263 264
325 321 322 327 331 329 327 328 329 328 327 325 323 323 317 305 301 309 312 313 317 321 320 318 320 321 323 310 305 300 296 289 286 287 279 276 272 271 272 272 272 271 269 267
325 324 322 322 323 324 328 329 328 327 329 327 326 326 322 316 311 312 314 315 316 319 320 315 316 318 314 306 301 300 298 299 299 294 287 285 280 278 277 276 272 270 269 268
330 330 330 333 337 337 333 328 325 324 325 321 319 321 322 323 323 322 321 318 318 317 315 314 315 314 311 308 306 304 301 298 294 291 288 284 281 278 276 274 274 273 273 272
Height
1438 1434 1435 1437 1436 1437 1440 1440 1442 1433 1431 1430 1430 1430 1430 1430 1429 1429 1429 1428 1428 1428 1429 1429 1430 1432 1433 1435 1436 1438 1439 1440 1442 1444 1447 1449 1451 1453 1455 1457 1459 1461 1462 1464
1439 1433 1433 1434 1431 1431 1432 1432 1431 1430 1429 1427 1428 1428 1428 1429 1429 1428 1428 1427 1427 1427 1427 1427 1428 1429 1430 1432 1433 1434 1436 1437 1439 1441 1443 1445 1447 1449 1451 1453 1455 1457 1458 1460
1439 1432 1432 1433 1425 1426 1427 1427 1427 1429 1428 1426 1426 1427 1427 1427 1427 1426 1426 1426 1425 1425 1425 1425 1425 1426 1428 1429 1430 1432 1433 1435 1437 1439 1440 1442 1444 1446 1448 1449 1451 1453 1454 1456
1438 1436 1438 1423 1418 1418 1421 1423 1425 1425 1424 1425 1425 1425 1425 1426 1425 1424 1424 1423 1423 1423 1422 1423 1423 1424 1425 1426 1427 1429 1430 1432 1434 1436 1438 1439 1441 1443 1445 1446 1448 1449 1451 1452
1436 1434 1426 1421 1419 1420 1421 1423 1424 1424 1423 1423 1422 1422 1423 1424 1423 1423 1422 1421 1420 1420 1420 1421 1421 1422 1422 1423 1424 1426 1427 1429 1431 1433 1434 1436 1438 1440 1441 1443 1445 1446 1447 1448
1432 1431 1427 1422 1420 1417 1419 1423 1423 1423 1423 1423 1422 1426 1425 1424 1423 1421 1420 1419 1418 1418 1418 1418 1419 1419 1419 1420 1421 1423 1424 1426 1428 1430 1431 1433 1435 1437 1438 1440 1441 1442 1443 1444
1430 1428 1423 1425 1420 1418 1425 1427 1424 1422 1423 1423 1424 1426 1425 1423 1422 1420 1419 1418 1417 1416 1416 1416 1416 1417 1417 1418 1419 1420 1422 1424 1425 1427 1429 1430 1432 1433 1435 1436 1438 1439 1440 1441
1429 1428 1429 1426 1423 1426 1427 1425 1423 1423 1423 1423 1423 1423 1422 1422 1420 1419 1417 1416 1415 1415 1414 1414 1415 1415 1415 1416 1417 1419 1420 1421 1422 1424 1426 1427 1428 1430 1431 1433 1434 1435 1436 1437
1429 1430 1429 1426 1426 1426 1426 1425 1424 1423 1423 1423 1422 1422 1421 1420 1419 1418 1417 1416 1415 1414 1413 1413 1414 1414 1414 1414 1415 1416 1417 1418 1420 1421 1422 1424 1425 1426 1428 1429 1430 1431 1433 1433
1428 1428 1428 1427 1426 1426 1426 1425 1425 1424 1424 1423 1422 1421 1420 1419 1418 1417 1416 1415 1414 1413 1412 1412 1412 1412 1412 1413 1413 1414 1415 1416 1417 1418 1419 1421 1422 1423 1425 1426 1427 1428 1429 1430
1428 1428 1427 1426 1427 1426 1426 1425 1424 1423 1423 1422 1421 1420 1419 1418 1417 1416 1415 1414 1414 1413 1412 1411 1410 1410 1411 1411 1411 1412 1413 1413 1415 1416 1417 1418 1419 1421 1422 1423 1424 1425 1425 1426
1430 1429 1429 1427 1427 1426 1425 1424 1423 1422 1421 1420 1420 1419 1418 1417 1416 1415 1414 1413 1413 1412 1411 1410 1410 1409 1409 1409 1409 1410 1410 1411 1412 1413 1414 1415 1416 1418 1419 1420 1421 1421 1422 1423
1430 1428 1427 1426 1425 1424 1423 1423 1422 1421 1420 1419 1418 1417 1416 1416 1415 1414 1413 1413 1412 1411 1410 1409 1409 1408 1408 1407 1408 1408 1409 1409 1410 1411 1412 1412 1413 1414 1414 1416 1417 1417 1418 1419
1428 1427 1426 1425 1424 1423 1422 1421 1420 1419 1418 1418 1417 1416 1415 1415 1414 1413 1412 1412 1411 1410 1409 1408 1407 1407 1406 1406 1406 1406 1407 1407 1408 1408 1409 1409 1410 1411 1411 1411 1412 1412 1414 1414
1428 1427 1426 1425 1423 1422 1421 1419 1418 1417 1416 1416 1415 1414 1414 1413 1412 1412 1411 1411 1410 1409 1408 1407 1406 1405 1405 1404 1404 1404 1404 1405 1405 1405 1406 1406 1407 1407 1408 1408 1408 1408 1408 1409
1429 1427 1425 1424 1422 1421 1419 1418 1417 1416 1415 1414 1413 1413 1412 1412 1411 1410 1410 1409 1408 1407 1406 1405 1404 1404 1403 1402 1402 1402 1402 1403 1403 1403 1403 1403 1403 1403 1404 1404 1404 1404 1404 1404
1429 1427 1425 1423 1422 1420 1419 1418 1416 1415 1414 1413 1412 1411 1411 1410 1409 1408 1407 1407 1406 1405 1404 1404 1403 1402 1401 1401 1400 1400 1400 1400 1400 1400 1399 1399 1400 1400 1400 1400 1400 1400 1400 1401
1430 1428 1426 1424 1422 1420 1418 1417 1415 1414 1413 1412 1411 1409 1409 1408 1407 1406 1405 1404 1403 1402 1402 1401 1401 1400 1399 1399 1398 1397 1397 1396 1396 1396 1396 1396 1396 1396 1396 1396 1396 1396 1396 1397
1428 1427 1425 1423 1422 1420 1418 1416 1414 1413 1411 1410 1408 1407 1406 1406 1405 1404 1403 1401 1400 1399 1399 1399 1398 1397 1396 1396 1395 1394 1394 1393 1393 1393 1392 1392 1392 1392 1392 1392 1392 1392 1392 1392
1427 1426 1424 1422 1420 1418 1416 1415 1413 1411 1410 1408 1406 1405 1404 1403 1402 1401 1400 1398 1398 1397 1396 1396 1395 1394 1394 1393 1392 1392 1391 1391 1390 1390 1389 1389 1389 1388 1388 1388 1388 1388 1388 1388
1426 1424 1423 1421 1419 1417 1416 1414 1411 1409 1407 1406 1404 1402 1401 1400 1399 1398 1396 1395 1395 1394 1393 1393 1392 1391 1391 1390 1389 1389 1388 1387 1387 1386 1386 1386 1386 1385 1385 1385 1384 1384 1384 1384
1425 1423 1421 1419 1417 1415 1414 1412 1410 1408 1405 1404 1402 1400 1399 1397 1396 1395 1394 1393 1392 1391 1390 1389 1389 1388 1388 1387 1386 1385 1385 1384 1384 1383 1383 1382 1382 1382 1381 1381 1380 1380 1380 1379
1424 1422 1420 1418 1416 1414 1412 1410 1408 1406 1404 1402 1400 1399 1397 1396 1394 1393 1391 1391 1390 1389 1388 1386 1386 1385 1384 1384 1383 1382 1381 1381 1380 1380 1379 1379 1379 1378 1378 1377 1377 1376 1376 1375
1422 1420 1418 1416 1414 1412 1410 1408 1406 1404 1402 1400 1399 1397 1395 1393 1392 1391 1390 1388 1387 1386 1385 1384 1383 1382 1381 1380 1379 1379 1378 1377 1377 1376 1376 1375 1374 1374 1373 1373 1372 1372 1371 1371
1420 1418 1416 1414 1412 1410 1408 1406 1404 1402 1400 1398 1396 1395 1393 1392 1390 1388 1387 1386 1384 1383 1382 1381 1380 1379 1378 1377 1376 1375 1374 1374 1373 1372 1372 1371 1370 1370 1369 1369 1368 1368 1367 1367
1419 1417 1415 1413 1411 1409 1407 1404 1402 1400 1398 1396 1394 1392 1390 1389 1387 1386 1384 1383 1381 1380 1379 1377 1376 1375 1374 1373 1372 1372 1371 1370 1369 1368 1367 1367 1366 1365 1365 1364 1364 1363 1363 1362
1417 1415 1413 1411 1409 1407 1405 1403 1400 1398 1396 1394 1391 1389 1388 1386 1384 1383 1381 1379 1378 1377 1375 1374 1373 1372 1371 1370 1369 1368 1367 1366 1365 1364 1363 1362 1362 1361 1360 1360 1359 1359 1358 1358